timestamp,wind_dir_avg,wind_spd_avg,wind_spd_max_dir,wind_spd_gust,battery_voltage,lat,long
2021-02-19 00:04:01+00:00,320.0,6.83,323.0,8.66,12.49,47.59359,-54.27349
2021-02-19 00:14:01+00:00,323.0,6.86,329.0,8.19,12.49,47.59359,-54.27349
2021-02-19 00:24:01+00:00,313.0,7.22,310.0,8.24,12.49,47.59359,-54.27349
2021-02-19 00:34:01+00:00,318.0,6.85,319.0,8.4,12.49,47.59359,-54.27349
2021-02-19 00:44:01+00:00,314.0,7.07,315.0,8.77,12.49,47.59359,-54.27349
2021-02-19 00:54:01+00:00,322.0,7.28,310.0,9.47,12.49,47.59359,-54.27349
2021-02-19 01:04:01+00:00,317.0,8.42,323.0,9.66,12.49,47.59359,-54.27349
2021-02-19 01:14:01+00:00,319.0,8.29,323.0,9.55,12.41,47.59359,-54.27349
2021-02-19 01:24:01+00:00,317.0,9.07,318.0,11.15,12.41,47.59359,-54.27349
2021-02-19 01:34:01+00:00,321.0,8.87,321.0,10.19,12.41,47.59359,-54.27349
2021-02-19 01:44:01+00:00,322.0,9.1,322.0,10.11,12.41,47.59359,-54.27349
2021-02-19 01:54:01+00:00,319.0,9.79,317.0,12.03,12.41,47.59359,-54.27349
2021-02-19 02:04:01+00:00,321.0,8.8,315.0,10.47,12.41,47.59359,-54.27349
2021-02-19 02:14:01+00:00,321.0,9.54,318.0,10.84,12.41,47.59359,-54.27349
2021-02-19 02:24:01+00:00,327.0,10.25,340.0,11.49,12.41,47.59359,-54.27349
2021-02-19 02:34:01+00:00,328.0,9.31,320.0,10.98,12.41,47.59359,-54.27349
2021-02-19 02:44:01+00:00,328.0,9.51,330.0,11.13,12.41,47.59359,-54.27349
2021-02-19 02:54:01+00:00,329.0,9.37,330.0,10.25,12.41,47.59359,-54.27349
2021-02-19 03:04:01+00:00,330.0,9.59,328.0,10.55,12.41,47.59359,-54.27349
2021-02-19 03:14:01+00:00,326.0,9.51,321.0,11.14,12.41,47.59359,-54.27349
2021-02-19 03:24:01+00:00,326.0,8.54,326.0,9.8,12.41,47.59359,-54.27349
2021-02-19 03:34:01+00:00,322.0,9.6,326.0,10.83,12.41,47.59359,-54.27349
2021-02-19 03:44:01+00:00,329.0,8.57,323.0,9.8,12.41,47.59359,-54.27349
2021-02-19 03:54:01+00:00,326.0,9.31,324.0,10.6,12.41,47.59359,-54.27349
2021-02-19 04:04:01+00:00,333.0,8.51,334.0,9.38,12.41,47.59359,-54.27349
2021-02-19 04:14:01+00:00,323.0,8.91,321.0,10.51,12.41,47.59359,-54.27349
2021-02-19 04:24:01+00:00,316.0,8.77,322.0,10.1,12.41,47.59359,-54.27349
2021-02-19 04:34:01+00:00,314.0,7.74,312.0,9.21,12.41,47.59359,-54.27349
2021-02-19 04:44:01+00:00,317.0,7.36,319.0,8.24,12.41,47.59359,-54.27349
2021-02-19 04:54:01+00:00,330.0,7.11,328.0,8.33,12.41,47.59359,-54.27349
2021-02-19 05:04:01+00:00,332.0,6.41,328.0,7.43,12.41,47.59359,-54.27349
2021-02-19 05:14:01+00:00,336.0,7.01,329.0,8.17,12.33,47.59359,-54.27349
2021-02-19 05:24:01+00:00,332.0,6.12,329.0,7.01,12.33,47.59359,-54.27349
2021-02-19 05:34:01+00:00,324.0,6.46,322.0,7.82,12.33,47.59359,-54.27349
2021-02-19 05:44:01+00:00,324.0,4.77,320.0,5.77,12.33,47.59359,-54.27349
2021-02-19 05:54:01+00:00,7.0,3.79,2.0,4.7,12.33,47.59359,-54.27349
2021-02-19 06:04:01+00:00,344.0,4.4,345.0,5.52,12.33,47.59359,-54.27349
2021-02-19 06:14:01+00:00,341.0,5.59,346.0,6.58,12.33,47.59359,-54.27349
2021-02-19 06:24:01+00:00,339.0,3.86,344.0,4.86,12.33,47.59359,-54.27349
2021-02-19 06:34:01+00:00,341.0,4.0,346.0,4.85,12.33,47.59359,-54.27349
2021-02-19 06:44:01+00:00,312.0,4.49,317.0,5.21,12.33,47.59359,-54.27349
2021-02-19 06:54:01+00:00,293.0,3.57,319.0,4.09,12.33,47.59359,-54.27349
2021-02-19 07:04:01+00:00,328.0,3.28,311.0,3.87,12.33,47.59359,-54.27349
2021-02-19 07:14:01+00:00,323.0,3.75,317.0,4.59,12.25,47.59359,-54.27349
2021-02-19 07:24:01+00:00,312.0,3.49,319.0,4.32,12.25,47.59359,-54.27349
2021-02-19 07:34:01+00:00,309.0,3.57,317.0,4.33,12.25,47.59359,-54.27349
2021-02-19 07:44:01+00:00,334.0,3.96,333.0,4.52,12.25,47.59359,-54.27349
2021-02-19 07:54:01+00:00,325.0,4.48,322.0,5.22,12.25,47.59359,-54.27349
2021-02-19 08:04:01+00:00,318.0,5.05,325.0,5.72,12.25,47.59359,-54.27349
2021-02-19 08:14:01+00:00,313.0,5.12,318.0,5.49,12.25,47.59359,-54.27349
2021-02-19 08:24:01+00:00,320.0,4.93,322.0,5.81,12.25,47.59359,-54.27349
2021-02-19 08:34:01+00:00,312.0,5.17,318.0,6.01,12.25,47.59359,-54.27349
2021-02-19 08:44:01+00:00,306.0,4.34,312.0,5.24,12.25,47.59359,-54.27349
2021-02-19 08:54:01+00:00,309.0,4.4,323.0,5.57,12.25,47.59359,-54.27349
2021-02-19 09:04:01+00:00,317.0,4.41,318.0,5.22,12.25,47.59359,-54.27349
2021-02-19 09:14:01+00:00,311.0,4.49,311.0,5.28,12.17,47.59359,-54.27349
2021-02-19 09:24:01+00:00,317.0,4.84,319.0,5.48,12.17,47.59359,-54.27349
2021-02-19 09:34:01+00:00,318.0,4.44,320.0,5.3,12.17,47.59359,-54.27349
2021-02-19 09:44:01+00:00,307.0,4.19,308.0,5.4,12.17,47.59359,-54.27349
2021-02-19 09:54:01+00:00,320.0,4.09,320.0,4.59,12.17,47.59359,-54.27349
2021-02-19 10:04:01+00:00,300.0,5.0,303.0,5.58,12.17,47.59359,-54.27349
2021-02-19 10:14:01+00:00,300.0,4.69,298.0,5.35,12.17,47.59359,-54.27349
2021-02-19 10:24:01+00:00,309.0,4.61,313.0,5.08,12.17,47.59359,-54.27349
2021-02-19 10:34:01+00:00,303.0,2.05,305.0,2.97,12.17,47.59359,-54.27349
2021-02-19 10:44:01+00:00,310.0,3.38,307.0,4.46,12.17,47.59359,-54.27349
2021-02-19 10:54:01+00:00,300.0,3.83,307.0,4.42,12.17,47.59359,-54.27349
2021-02-19 11:04:01+00:00,297.0,5.57,297.0,6.53,12.17,47.59359,-54.27349
2021-02-19 12:14:01+00:00,295.0,6.72,290.0,7.38,14.32,47.59359,-54.27349
2021-02-19 12:24:01+00:00,303.0,6.09,295.0,6.86,14.32,47.59359,-54.27349
2021-02-19 12:34:01+00:00,295.0,6.11,301.0,6.6,14.32,47.59359,-54.27349
2021-02-19 12:44:01+00:00,298.0,5.58,296.0,6.52,14.32,47.59359,-54.27349
2021-02-19 12:54:01+00:00,295.0,4.98,295.0,5.79,14.32,47.59359,-54.27349
2021-02-19 13:04:01+00:00,301.0,4.48,303.0,5.17,14.32,47.59359,-54.27349
2021-02-19 13:14:01+00:00,293.0,4.24,289.0,5.23,13.68,47.59359,-54.27349
2021-02-19 13:24:01+00:00,290.0,4.46,304.0,4.99,13.68,47.59359,-54.27349
2021-02-19 13:34:01+00:00,284.0,3.59,288.0,4.08,13.68,47.59359,-54.27349
2021-02-19 13:44:01+00:00,296.0,2.88,305.0,4.29,13.68,47.59359,-54.27349
2021-02-19 13:54:01+00:00,277.0,3.78,278.0,4.96,13.68,47.59359,-54.27349
2021-02-19 14:04:01+00:00,278.0,4.23,285.0,5.02,13.68,47.59359,-54.27349
2021-02-19 14:14:01+00:00,291.0,1.79,297.0,2.75,13.76,47.59359,-54.27349
2021-02-19 14:24:01+00:00,262.0,2.45,263.0,3.42,13.76,47.59359,-54.27349
2021-02-19 14:34:01+00:00,269.0,3.36,272.0,3.96,13.76,47.59359,-54.27349
2021-02-19 14:44:01+00:00,263.0,3.4,263.0,4.01,13.76,47.59359,-54.27349
2021-02-19 14:54:01+00:00,262.0,4.06,265.0,5.48,13.76,47.59359,-54.27349
2021-02-19 15:04:01+00:00,322.0,2.01,320.0,2.84,13.76,47.59359,-54.27349
2021-02-19 15:14:01+00:00,315.0,3.3,323.0,4.01,14.32,47.59359,-54.27349
2021-02-19 15:24:01+00:00,288.0,4.24,284.0,6.48,14.32,47.59359,-54.27349
2021-02-19 15:34:01+00:00,300.0,4.65,304.0,6.65,14.32,47.59359,-54.27349
2021-02-19 15:44:01+00:00,290.0,3.51,277.0,4.31,14.32,47.59359,-54.27349
2021-02-19 15:54:01+00:00,296.0,6.45,303.0,8.75,14.32,47.59359,-54.27349
2021-02-19 16:04:01+00:00,280.0,5.56,274.0,6.42,14.32,47.59359,-54.27349
2021-02-19 16:14:01+00:00,286.0,6.4,280.0,7.25,13.68,47.59359,-54.27349
2021-02-19 16:24:01+00:00,295.0,5.95,295.0,6.92,13.68,47.59359,-54.27349
2021-02-19 16:34:01+00:00,297.0,8.22,302.0,9.93,13.68,47.59359,-54.27349
2021-02-19 16:44:01+00:00,290.0,7.51,295.0,8.86,13.68,47.59359,-54.27349
2021-02-19 16:54:01+00:00,276.0,7.29,278.0,8.55,13.68,47.59359,-54.27349
2021-02-19 17:04:01+00:00,284.0,9.0,280.0,14.1,13.68,47.59359,-54.27349
2021-02-19 17:14:01+00:00,289.0,8.48,281.0,9.69,13.68,47.59359,-54.27349
2021-02-19 17:24:01+00:00,280.0,8.62,268.0,11.37,13.68,47.59359,-54.27349
2021-02-19 17:34:01+00:00,291.0,9.88,282.0,14.7,13.68,47.59359,-54.27349
2021-02-19 17:44:01+00:00,271.0,7.58,270.0,8.31,13.68,47.59359,-54.27349
2021-02-19 17:54:01+00:00,297.0,9.05,292.0,12.2,13.68,47.59359,-54.27349
2021-02-19 18:04:01+00:00,283.0,7.12,286.0,9.03,13.68,47.59359,-54.27349
2021-02-19 18:14:01+00:00,300.0,6.91,300.0,8.22,13.76,47.59359,-54.27349
2021-02-19 18:24:01+00:00,284.0,8.46,283.0,10.42,13.76,47.59359,-54.27349
2021-02-19 18:34:01+00:00,286.0,9.17,284.0,11.77,13.76,47.59359,-54.27349
2021-02-19 18:44:01+00:00,280.0,8.43,277.0,9.83,13.76,47.59359,-54.27349
2021-02-19 18:54:01+00:00,263.0,6.64,264.0,8.32,13.76,47.59359,-54.27349
2021-02-19 19:04:01+00:00,262.0,7.35,262.0,8.36,13.76,47.59359,-54.27349
2021-02-19 19:14:01+00:00,273.0,7.53,271.0,8.41,13.84,47.59359,-54.27349
2021-02-19 19:24:01+00:00,283.0,6.39,282.0,7.63,13.84,47.59359,-54.27349
2021-02-19 19:34:01+00:00,276.0,7.42,272.0,8.76,13.84,47.59359,-54.27349
2021-02-19 19:44:01+00:00,299.0,7.0,304.0,8.81,13.84,47.59359,-54.27349
2021-02-19 19:54:01+00:00,287.0,8.45,282.0,9.74,13.84,47.59359,-54.27349
2021-02-19 20:04:01+00:00,301.0,8.57,304.0,9.93,13.84,47.59359,-54.27349
2021-02-19 20:14:01+00:00,290.0,7.11,289.0,8.01,13.53,47.59359,-54.27349
2021-02-19 20:24:01+00:00,308.0,6.48,321.0,7.81,13.53,47.59359,-54.27349
2021-02-19 20:34:01+00:00,312.0,6.56,318.0,7.87,13.53,47.59359,-54.27349
2021-02-19 20:44:01+00:00,306.0,6.42,298.0,7.92,13.53,47.59359,-54.27349
2021-02-19 20:54:01+00:00,310.0,5.69,309.0,6.54,13.53,47.59359,-54.27349
2021-02-19 21:04:01+00:00,301.0,5.88,304.0,7.4,13.53,47.59359,-54.27349
2021-02-19 21:14:01+00:00,303.0,5.63,299.0,6.28,12.97,47.59359,-54.27349
2021-02-19 21:24:01+00:00,282.0,5.94,287.0,6.87,12.97,47.59359,-54.27349
2021-02-19 21:34:01+00:00,288.0,5.48,294.0,7.22,12.97,47.59359,-54.27349
2021-02-19 21:44:01+00:00,279.0,5.2,285.0,5.94,12.97,47.59359,-54.27349
2021-02-19 21:54:01+00:00,295.0,3.43,300.0,5.11,12.97,47.59359,-54.27349
2021-02-19 22:04:01+00:00,307.0,4.59,314.0,5.63,12.97,47.59359,-54.27349
2021-02-19 22:14:01+00:00,286.0,4.62,290.0,5.7,12.57,47.59359,-54.27349
2021-02-19 22:24:01+00:00,290.0,4.52,286.0,5.45,12.57,47.59359,-54.27349
2021-02-19 22:34:01+00:00,286.0,4.96,290.0,6.12,12.57,47.59359,-54.27349
2021-02-19 22:44:01+00:00,298.0,4.38,299.0,5.5,12.57,47.59359,-54.27349
2021-02-19 22:54:01+00:00,300.0,4.74,303.0,5.45,12.57,47.59359,-54.27349
2021-02-19 23:04:01+00:00,306.0,4.08,309.0,4.85,12.57,47.59359,-54.27349
2021-02-19 23:14:01+00:00,293.0,5.1,284.0,6.38,12.49,47.59359,-54.27349
2021-02-19 23:24:01+00:00,313.0,3.48,321.0,4.24,12.49,47.59359,-54.27349
2021-02-19 23:34:01+00:00,310.0,4.34,312.0,5.12,12.49,47.59359,-54.27349
2021-02-19 23:44:01+00:00,303.0,5.64,306.0,7.06,12.49,47.59359,-54.27349
2021-02-19 23:54:01+00:00,306.0,4.82,302.0,6.6,12.49,47.59359,-54.27349
